EDT,Max TemperatureF,Mean TemperatureF,Min TemperatureF,Max Dew PointF,MeanDew PointF,Min DewpointF,Max Humidity, Mean Humidity, Min Humidity, Max Sea Level PressureIn, Mean Sea Level PressureIn, Min Sea Level PressureIn, Max VisibilityMiles, Mean VisibilityMiles, Min VisibilityMiles, Max Wind SpeedMPH, Mean Wind SpeedMPH, Max Gust SpeedMPH,PrecipitationIn, CloudCover, Events, WindDirDegrees
2013-9-1,90,80,70,72,70,68,97,82,55,29.97,29.91,29.84,10,7,0,15,5,24,0.01,4,Fog-Thunderstorm,227
2013-9-2,87,80,73,72,70,67,94,78,53,29.94,29.89,29.84,10,8,2,8,4,,0.00,5,,255
2013-9-3,89,78,68,69,66,60,90,70,43,29.99,29.91,29.85,10,10,5,15,4,21,0.05,2,Rain-Thunderstorm,338
2013-9-4,87,78,70,68,64,60,82,62,46,30.11,30.05,29.98,10,10,10,10,5,,0.00,2,,58
2013-9-5,89,80,70,68,63,56,81,60,36,30.14,30.10,30.06,10,10,10,9,3,,0.00,0,,347
2013-9-6,84,76,68,62,59,57,76,57,41,30.19,30.13,30.08,10,10,10,14,8,18,0.00,0,,44
2013-9-7,84,74,66,64,61,59,84,64,47,30.15,30.08,30.01,10,10,10,9,4,,0.00,2,,318
2013-9-8,88,76,66,68,65,60,87,66,43,30.01,29.98,29.95,10,10,10,7,1,,0.00,1,,51
2013-9-9,90,80,71,67,65,63,84,63,43,30.15,30.08,30.01,10,10,10,10,4,,0.00,1,,50
2013-9-10,89,78,69,69,66,64,87,66,45,30.25,30.20,30.14,10,10,9,9,1,,0.00,0,,163
2013-9-11,90,80,70,68,65,61,87,64,39,30.24,30.17,30.10,10,10,9,8,2,,0.00,1,,215
2013-9-12,90,80,71,68,67,64,87,71,45,30.09,29.99,29.88,10,10,7,14,3,22,0.00,2,,272
2013-9-13,86,76,66,69,59,50,85,59,38,29.90,29.85,29.80,10,10,10,14,5,,0.00,2,,2
2013-9-14,79,68,59,56,51,47,72,55,41,30.11,30.02,29.91,10,10,10,16,9,26,0.00,1,,44
2013-9-15,82,72,62,64,58,55,80,67,50,30.24,30.18,30.12,10,10,10,10,6,,0.00,4,,35
2013-9-16,87,77,68,64,61,57,84,62,38,30.15,30.12,30.06,10,10,10,9,3,,0.00,3,,354
2013-9-17,75,70,66,59,55,53,70,61,51,30.31,30.23,30.15,10,10,10,16,11,22,0.00,7,,44
2013-9-18,75,68,61,59,55,53,78,66,51,30.32,30.25,30.18,10,10,10,10,8,,0.00,6,,33
2013-9-19,82,71,61,66,60,56,90,69,49,30.20,30.15,30.09,10,10,10,6,3,,0.00,3,,91
2013-9-20,86,74,64,63,62,60,94,67,43,30.10,30.02,29.94,10,10,9,10,2,16,0.00,1,,236
2013-9-21,73,68,64,70,66,60,94,88,73,29.94,29.78,29.67,10,6,1,16,5,23,1.22,7,Rain,198
2013-9-22,80,70,61,60,56,55,84,66,45,29.91,29.83,29.75,10,10,10,9,6,,0.00,2,,20
2013-9-23,77,68,62,58,55,53,78,65,48,30.06,30.01,29.92,10,10,10,12,7,,0.00,5,,44
2013-9-24,75,68,60,61,58,56,87,70,54,30.09,30.02,29.95,10,10,10,7,2,,0.00,6,Rain,100
2013-9-25,70,66,62,63,61,58,94,89,71,29.97,29.93,29.88,10,7,1,10,5,,1.28,8,Rain,91
2013-9-26,77,68,60,60,57,54,93,74,48,30.04,29.96,29.89,10,9,7,13,6,18,0.00,4,,30
2013-9-27,78,68,57,55,53,51,81,63,42,30.18,30.11,30.05,10,10,10,13,9,18,0.00,1,,40
2013-9-28,73,65,57,55,53,51,87,65,46,30.27,30.20,30.16,10,10,10,12,7,18,0.00,3,,51
2013-9-29,75,65,57,56,53,50,88,68,48,30.20,30.14,30.05,10,10,10,9,5,,0.00,5,,37
2013-9-30,77,67,59,57,55,53,87,67,45,30.11,30.07,30.01,10,10,10,8,3,,0.00,3,,24